Simultaneous Nadir Overpasses (SNOs) Predictions

Prediction of SNOs between LANDSAT-8 and METOP-B Satellite Orbit:

Table of predicted SNOs for the next 14.0 days since TLE Epoch: 8/10/2019
Index Date (LANDSAT-8) Time (LANDSAT-8) Lat,Lon (LANDSAT-8) SZA (LANDSAT-8 ) Date (METOP-B) Time (METOP-B) Lat,Lon (METOP-B) SZA (METOP-B ) Distance(km) Time Diff (sec)
1 08/12/2019 18:51:20 81.15, -62.29 68.32 08/12/2019 18:50:39 81.15, -62.47 68.28 3.05 41
2 08/12/2019 19:40:46 -81.17, 105.68 111.62 08/12/2019 19:41:17 -81.18, 105.84 111.59 2.78 31
3 08/15/2019 14:25:36 81.16, 4.18 69.20 08/15/2019 14:25:00 81.16, 4.35 69.21 2.87 36
4 08/15/2019 15:15:02 -81.18, 172.18 110.74 08/15/2019 15:15:39 -81.18, 172.31 110.71 2.20 37
5 08/18/2019 09:59:52 81.16, 70.63 70.11 08/18/2019 09:59:22 81.16, 70.77 70.11 2.45 30
6 08/18/2019 10:49:18 -81.18,-121.35 109.83 08/18/2019 10:50:01 -81.18,-121.23 109.80 1.97 43
7 08/21/2019 05:34:07 81.16, 137.06 71.04 08/21/2019 05:33:43 81.16, 137.19 71.05 2.34 24
8 08/21/2019 06:23:33 -81.18, -54.90 108.89 08/21/2019 06:24:22 -81.18, -54.78 108.86 2.10 49
9 08/24/2019 01:08:22 81.18,-156.16 72.05 08/24/2019 01:08:04 81.17,-156.02 72.06 2.53 18




NCC Satellite Simultaneous Nadir Overpasses (SNOs) Prediction Service
